FW7611 Weather Reports


Display with metric or nautical units.
time (UTC)temp
F
wind
direction
speed
MPH
gust
MPH
rain 1hr
in
rain 24hr
in
rain mn
in
humidity
%
barometer
mb
20260906091548 69 0 0.0 2.0 0.00 0.00 0.00 93 1014.0
20260906090043 69 38 0.0 2.0 0.00 0.00 0.00 93 1013.9
20260906084549 69 0 0.0 0.0 0.00 0.00 0.00 92 1013.7
20260906083052 70 0 0.0 0.0 0.00 0.00 0.00 92 1013.7
20260906081548 70 0 0.0 2.0 0.00 0.00 0.00 92 1013.5
20260906080045 70 0 0.0 2.0 0.00 0.00 0.00 91 1013.3
20260906074542 70 0 0.0 2.0 0.00 0.00 0.00 91 1013.3
20260906073041 70 0 0.0 0.0 0.00 0.00 0.00 91 1013.3
20260906071548 70 0 0.0 0.0 0.00 0.00 0.00 91 1013.5
20260906070047 71 0 0.0 0.0 0.00 0.00 0.00 91 1013.7
20260906064541 70 0 0.0 0.0 0.00 0.00 0.00 92 1013.9
20260906063050 71 0 0.0 0.0 0.00 0.00 0.00 92 1014.0
20260906061551 71 0 0.0 0.0 0.00 0.00 0.00 91 1014.0
20260906060048 71 0 0.0 0.0 0.00 0.00 0.00 90 1014.1
20260906054543 72 0 0.0 0.0 0.00 0.00 0.00 89 1014.0
20260906053048 72 0 0.0 0.0 0.00 0.00 0.00 89 1013.9
20260906051558 73 0 0.0 0.0 0.00 0.00 0.00 87 1013.9
20260906050056 73 0 0.0 0.0 0.00 0.00 0.00 88 1014.0
20260906044557 73 0 0.0 0.0 0.00 0.00 0.00 89 1014.1
20260906043048 73 0 0.0 0.0 0.00 0.00 0.00 88 1014.2
20260906041547 73 0 0.0 0.0 0.00 0.00 0.00 88 1014.2
20260906040059 73 0 0.0 0.0 0.00 0.00 0.00 87 1014.3
20260906034551 74 0 0.0 0.0 0.00 0.00 0.00 86 1014.4
20260906033050 74 0 0.0 0.0 0.00 0.00 0.00 86 1014.3
20260906031546 74 0 0.0 0.0 0.00 0.00 0.00 87 1014.3
20260906030043 74 0 0.0 0.0 0.00 0.00 0.00 86 1014.1
20260906024559 75 0 0.0 0.0 0.00 0.00 0.00 85 1014.2
20260906023047 75 0 0.0 1.0 0.00 0.00 0.00 85 1014.2
20260906021547 75 0 0.0 2.0 0.00 0.00 0.00 85 1014.0
20260906020043 76 0 0.0 0.0 0.00 0.00 0.00 83 1014.0
20260906014625 76 0 1.0 2.0 0.00 0.00 0.00 82 1014.1
20260906013052 75 0 0.0 0.0 0.00 0.00 0.00 84 1013.9
20260906011548 75 0 0.0 1.0 0.00 0.00 0.00 84 1013.7
20260906010052 75 0 0.0 0.0 0.00 0.00 0.00 86 1013.5
20260906004547 75 0 0.0 0.0 0.00 0.00 0.00 85 1013.5
20260906003040 75 0 0.0 0.0 0.00 0.00 0.00 85 1013.4
20260906001548 75 0 0.0 0.0 0.00 0.00 0.00 84 1013.3
20260906000047 76 0 0.0 0.0 0.00 0.00 0.00 82 1013.1
20260905234542 77 0 0.0 0.0 0.00 0.00 0.00 82 1013.0
20260905233045 78 0 0.0 0.0 0.00 0.00 0.00 79 1013.1
20260905231543 79 0 0.0 0.0 0.00 0.00 0.00 76 1013.0
20260905230048 79 0 0.0 1.0 0.00 0.00 0.00 73 1012.8
20260905224540 80 0 0.0 2.0 0.00 0.00 0.00 72 1013.0
20260905223043 80 0 0.0 2.0 0.00 0.00 0.00 71 1012.9
20260905221608 80 0 0.0 5.0 0.00 0.00 0.00 70 1012.9
20260905220047 80 0 1.0 4.0 0.00 0.00 0.00 72 1013.2
20260905214542 79 0 0.0 2.0 0.00 0.00 0.00 74 1013.2
20260905213058 79 0 0.0 0.0 0.00 0.00 0.00 74 1013.2
20260905211548 78 0 0.0 1.0 0.00 0.00 0.00 75 1013.4
20260905210447 78 286 0.0 2.0 0.00 0.00 0.00 75 1013.5